Content
SEND FEEDBACK

Daily
Averages
Monthly
Summary
United States of America

ORANGE, TEXAS


Home > North America > United States > Texas
Elevation: 1 foot     Latitude: 30 07N     Longitude: 093 47W

WEATHER
 
SELECT A DAY
Number of Records: 118,912;   Date Range: 8/25/05 - 12/17/14
 
SHARE

PRINT THIS DATA

[ ← Previous Day ]
WEATHER ALMANAC - MARCH 20, 2013
[ Next Day → ]
[ °C ]   °F
Weather ElementAverageHighLow
Temperature59.9 °F73.4 °F (4:55 pm) (3:55 pm)
Dewpoint42.6 °F53.6 °F (7:15 am) (7:00 pm)
Humidity56.9 %100 % (7:15 am)22 % (5:55 pm)
Barometer29.25 in30.20 in (9:55 am) (7:00 pm)
Wind Speed7.1 mph17.3 mph (5:35 am)
Wind Gust26.5 mph (5:55 am)
Weather ElementAverage
Visibility9.7 mi
Wind DirectionENE (69.9 °)

Weather ElementTotal
Precipitation0.52 in
Heating Degree Days28.3 (Base 65)
Averaged from 70 records on March 20, 2013
WEATHER CONDITIONS BREAKOUT
WIND DIRECTION BREAKOUT
WEATHER BY HOUR - MARCH 20, 2013
[ °C ]   °F
Local TimeTemperatureDewpointHumidityBarometerVisibilityWind DirectionWind SpeedGust SpeedPrecipitationEventsConditions
12:55 AM64.4 °F51.8 °F64 %30.01 in10.0 miNE (50°)10.4 mphOvercast
1:15 AM64.4 °F48.2 °F56 %30.02 in10.0 miCalmOvercast
1:35 AM64.4 °F46.4 °F52 %30.01 in10.0 miCalmOvercast
1:55 AM64.4 °F46.4 °F52 %30.03 in10.0 miNNE (30°)3.5 mphOvercast
2:15 AM64.4 °F44.6 °F49 %30.02 in10.0 miNNE (20°)6.9 mphOvercast
2:35 AM62.6 °F46.4 °F55 %30.05 in10.0 miCalmOvercast
2:55 AM62.6 °F44.6 °F52 %30.06 in10.0 miNorth (360°)8.1 mph16.1 mphOvercast
3:15 AM62.6 °F42.8 °F48 %30.06 in10.0 miNorth (350°)8.1 mph16.1 mphScattered Clouds
3:35 AM62.6 °F42.8 °F48 %30.06 in10.0 miNNW (340°)6.9 mph16.1 mphClear
3:55 AM60.8 °F41.0 °F48 %30.08 in10.0 miNorth (360°)11.5 mph21.9 mphScattered Clouds
4:15 AM60.8 °F41.0 °F48 %30.09 in10.0 miNorth (350°)12.7 mph18.4 mphMostly Cloudy
4:35 AM60.8 °F41.0 °F48 %30.08 in10.0 miNNE (30°)13.8 mph20.7 mphMostly Cloudy
4:55 AM60.8 °F41.0 °F48 %30.09 in10.0 miNorth (360°)13.8 mph20.7 mphOvercast
5:15 AM59.0 °F44.6 °F59 %30.09 in10.0 miNorth (10°)13.8 mph24.2 mphOvercast
5:35 AM59.0 °F48.2 °F67 %30.09 in10.0 miNorth (10°)17.3 mph24.2 mphOvercast
5:55 AM57.2 °F50.0 °F77 %30.11 in10.0 miNorth (10°)13.8 mph26.5 mphOvercast
6:15 AM57.2 °F50.0 °F77 %30.13 in10.0 miNNE (30°)6.9 mphRainLight Rain
6:35 AM55.4 °F51.8 °F88 %30.13 in5.0 miNE (40°)10.4 mph0.04 inRainRain
6:55 AM53.6 °F51.8 °F94 %30.18 in7.0 miSSW (200°)8.1 mph0.08 inRainLight Rain
7:15 AM53.6 °F53.6 °F100 %30.16 in7.0 miCalm0.03 inRain-ThunderstormLight Thunderstorms and Rain
7:35 AM53.6 °F51.8 °F94 %30.16 in5.0 miNNE (30°)3.5 mph0.06 inRain-ThunderstormThunderstorms and Rain
7:55 AM53.6 °F51.8 °F94 %30.15 in10.0 miCalm0.09 inRainLight Rain
8:15 AM53.6 °F51.8 °F94 %30.15 in10.0 miCalm0.02 inRainLight Rain
8:35 AM53.6 °F51.8 °F94 %30.12 in7.0 miNE (50°)11.5 mph0.04 inRainLight Rain
8:55 AM53.6 °F51.8 °F94 %30.16 in10.0 miCalm0.05 inScattered Clouds
9:15 AM51.8 °F51.8 °F100 %30.18 in10.0 miNorth (10°)9.2 mph0.01 inClear
9:35 AM51.8 °F51.8 °F100 %30.19 in10.0 miNorth (10°)10.4 mph0.01 inScattered Clouds
9:55 AM53.6 °F51.8 °F94 %30.20 in10.0 miNorth (360°)10.4 mph0.01 inScattered Clouds
10:15 AM53.6 °F51.8 °F94 %30.20 in10.0 miNNE (30°)3.5 mph19.6 mphMostly Cloudy
10:35 AM55.4 °F51.8 °F88 %30.20 in10.0 miNNE (30°)13.8 mph17.3 mphScattered Clouds
10:55 AM59.0 °F51.8 °F77 %30.19 in10.0 miNE (40°)13.8 mph19.6 mphClear
11:15 AM59.0 °F51.8 °F77 %30.19 in10.0 miNE (40°)15.0 mphClear
11:35 AM60.8 °F51.8 °F72 %30.20 in10.0 miNNE (20°)12.7 mphClear
11:55 AM62.6 °F51.8 °F68 %30.20 in10.0 miNNE (30°)8.1 mph16.1 mphClear
12:15 PM62.6 °F51.8 °F68 %30.19 in10.0 miNNE (20°)13.8 mph19.6 mphClear
12:35 PM64.4 °F51.8 °F64 %30.18 in10.0 miNNE (30°)12.7 mph18.4 mphClear
12:55 PM66.2 °F51.8 °F60 %30.17 in10.0 miNorth (10°)15.0 mph19.6 mphClear
1:15 PM68.0 °F50.0 °F52 %30.16 in10.0 miNNE (30°)12.7 mph18.4 mphClear
1:35 PM69.8 °F50.0 °F49 %30.15 in10.0 miNNE (20°)16.1 mph21.9 mphClear
1:55 PM69.8 °F44.6 °F40 %30.14 in10.0 miNorth (360°)11.5 mph21.9 mphClear
2:15 PM69.8 °F44.6 °F40 %30.13 in10.0 miNorth (360°)12.7 mph21.9 mphClear
2:35 PM71.6 °F42.8 °F35 %30.12 in10.0 miNorth (10°)13.8 mph19.6 mphClear
2:55 PM71.6 °F42.8 °F35 %30.11 in10.0 miNorth (350°)12.7 mph20.7 mphClear
3:15 PM71.6 °F41.0 °F33 %30.10 in10.0 miNNE (20°)12.7 mph20.7 mphClear
3:35 PM71.6 °F41.0 °F33 %30.09 in10.0 miNNE (30°)9.2 mph19.6 mphClear
3:55 PM0.0 °F0.0 °FNorth
4:15 PM0.0 °F0.0 °FNorth
4:35 PM71.6 °F35.6 °F27 %30.07 inNorth (10°)9.2 mph17.3 mph0.04 inClear
4:55 PM73.4 °F35.6 °F25 %30.08 in10.0 miNNE (30°)11.5 mph18.4 mph0.04 inClear
5:15 PM73.2 °F35.4 °F25 %30.07 in10.0 miNNE (30°)9.2 mphClear
5:35 PM72.9 °F33.3 °F23 %30.07 in10.0 miNorth (350°)12.7 mph17.3 mphClear
5:55 PM72.5 °F31.6 °F22 %30.07 in10.0 miNorth (10°)9.2 mph17.3 mphClear
6:15 PM71.6 °F32.0 °F23 %30.07 in10.0 miNNE (20°)10.4 mphClear
6:35 PM70.5 °F31.5 °F24 %30.07 in10.0 miCalmClear
6:55 PM68.9 °F32.0 °F25 %30.07 in10.0 miCalmClear
7:15 PM66.9 °F31.8 °F27 %30.08 in10.0 miCalmClear
7:35 PM64.8 °F34.7 °F33 %30.08 in10.0 miCalmClear
7:55 PM63.1 °F34.7 °F35 %30.08 in10.0 miCalmClear
8:15 PM62.6 °F34.0 °F34 %30.08 in10.0 miCalmClear
8:35 PM61.3 °F34.5 °F37 %30.08 in10.0 miCalmClear
8:55 PM60.6 °F34.3 °F37 %30.07 in10.0 miCalmClear
9:15 PM59.5 °F34.2 °F39 %30.07 in10.0 miCalmClear
9:35 PM59.2 °F34.0 °F39 %30.08 in10.0 miCalmClear
9:55 PM58.8 °F33.1 °F38 %30.09 in10.0 miCalmClear
10:15 PM57.2 °F36.0 °F45 %30.09 in10.0 miCalmClear
10:35 PM51.8 °F42.6 °F71 %30.10 in10.0 miCalmClear
10:55 PM52.9 °F40.1 °F62 %30.09 in10.0 miCalmClear
11:15 PM53.6 °F38.8 °F57 %30.09 in10.0 miCalmClear
11:35 PM51.4 °F43.7 °F75 %30.09 in10.0 miCalmClear
11:55 PM51.6 °F42.3 °F70 %30.09 in10.0 miCalmClear
Hourly data recorded from KORG, located miles away from Orange, Texas







STORIES FROM OUR PARTNERS